| time (UTC) | temp F | wind direction | speed MPH | gust MPH | rain 1hr in | rain 24hr in | rain mn in | humidity % | barometer mb |
| 20260510190548 | 72 | 288 | 2.0 | 8.0 | 0.00 | 0.00 | 0.00 | 64 | 1017.1 |
| 20260510190045 | 73 | 354 | 4.0 | 8.0 | 0.00 | 0.00 | 0.00 | 63 | 1017.0 |
| 20260510185536 | 73 | 34 | 6.0 | 10.0 | 0.00 | 0.00 | 0.00 | 64 | 1016.9 |
| 20260510185034 | 71 | 340 | 7.0 | 10.0 | 0.00 | 0.00 | 0.00 | 65 | 1017.2 |
| 20260510184531 | 73 | 27 | 7.0 | 9.0 | 0.00 | 0.00 | 0.00 | 62 | 1016.9 |
| 20260510184026 | 72 | 338 | 3.0 | 6.0 | 0.00 | 0.00 | 0.00 | 64 | 1017.0 |
| 20260510183521 | 73 | 45 | 9.0 | 17.0 | 0.00 | 0.00 | 0.00 | 64 | 1016.8 |
| 20260510183017 | 73 | 11 | 10.0 | 13.0 | 0.00 | 0.00 | 0.00 | 62 | 1016.9 |
| 20260510182514 | 72 | 332 | 6.0 | 13.0 | 0.00 | 0.00 | 0.00 | 65 | 1016.9 |
| 20260510182008 | 73 | 341 | 6.0 | 8.0 | 0.00 | 0.00 | 0.00 | 67 | 1016.9 |
| 20260510181507 | 73 | 341 | 6.0 | 10.0 | 0.00 | 0.00 | 0.00 | 66 | 1016.9 |
| 20260510181002 | 73 | 47 | 1.0 | 7.0 | 0.00 | 0.00 | 0.00 | 68 | 1016.8 |
| 20260510180500 | 72 | 311 | 4.0 | 6.0 | 0.00 | 0.00 | 0.00 | 66 | 1016.7 |
| 20260510175957 | 72 | 326 | 1.0 | 4.0 | 0.00 | 0.00 | 0.00 | 65 | 1016.6 |
| 20260510175452 | 71 | 16 | 2.0 | 11.0 | 0.00 | 0.00 | 0.00 | 66 | 1016.7 |
| 20260510174948 | 72 | 8 | 6.0 | 11.0 | 0.00 | 0.00 | 0.00 | 68 | 1016.7 |
| 20260510174446 | 72 | 20 | 8.0 | 9.0 | 0.00 | 0.00 | 0.00 | 65 | 1016.7 |
| 20260510173943 | 71 | 15 | 2.0 | 4.0 | 0.00 | 0.00 | 0.00 | 69 | 1016.8 |
| 20260510173439 | 70 | 288 | 3.0 | 9.0 | 0.00 | 0.00 | 0.00 | 70 | 1016.8 |
| 20260510172935 | 70 | 337 | 5.0 | 9.0 | 0.00 | 0.00 | 0.00 | 69 | 1016.8 |
| 20260510172431 | 68 | 33 | 6.0 | 8.0 | 0.00 | 0.00 | 0.00 | 72 | 1016.9 |
| 20260510171928 | 68 | 338 | 5.0 | 11.0 | 0.00 | 0.00 | 0.00 | 73 | 1016.7 |
| 20260510171425 | 68 | 35 | 6.0 | 8.0 | 0.00 | 0.00 | 0.00 | 72 | 1016.8 |
| 20260510170921 | 68 | 14 | 4.0 | 10.0 | 0.00 | 0.00 | 0.00 | 72 | 1016.8 |
| 20260510170418 | 68 | 12 | 7.0 | 9.0 | 0.00 | 0.00 | 0.00 | 72 | 1016.9 |
| 20260510165913 | 69 | 8 | 4.0 | 9.0 | 0.00 | 0.00 | 0.00 | 72 | 1017.0 |
| 20260510165410 | 70 | 42 | 2.0 | 4.0 | 0.00 | 0.00 | 0.00 | 70 | 1016.9 |
| 20260510164908 | 70 | 13 | 3.0 | 6.0 | 0.00 | 0.00 | 0.00 | 70 | 1016.8 |
| 20260510164405 | 70 | 13 | 4.0 | 7.0 | 0.00 | 0.00 | 0.00 | 69 | 1016.8 |
| 20260510163904 | 71 | 7 | 6.0 | 9.0 | 0.00 | 0.00 | 0.00 | 65 | 1016.9 |
| 20260510163401 | 71 | 340 | 5.0 | 10.0 | 0.00 | 0.00 | 0.00 | 68 | 1016.8 |
| 20260510162855 | 70 | 322 | 6.0 | 7.0 | 0.00 | 0.00 | 0.00 | 67 | 1016.7 |
| 20260510162354 | 70 | 335 | 6.0 | 9.0 | 0.00 | 0.00 | 0.00 | 69 | 1016.7 |
| 20260510161848 | 70 | 305 | 2.0 | 2.0 | 0.00 | 0.00 | 0.00 | 68 | 1016.8 |
| 20260510161344 | 70 | 339 | 0.0 | 0.0 | 0.00 | 0.00 | 0.00 | 66 | 1016.8 |
| 20260510160841 | 69 | 338 | 0.0 | 0.0 | 0.00 | 0.00 | 0.00 | 74 | 1016.8 |
| 20260510160339 | 69 | 339 | 0.0 | 0.0 | 0.00 | 0.00 | 0.00 | 72 | 1016.6 |
| 20260510155832 | 68 | 338 | 0.0 | 0.0 | 0.00 | 0.00 | 0.00 | 71 | 1016.8 |
| 20260510155330 | 69 | 315 | 2.0 | 3.0 | 0.00 | 0.00 | 0.00 | 68 | 1016.8 |
| 20260510154826 | 69 | 36 | 4.0 | 7.0 | 0.00 | 0.00 | 0.00 | 66 | 1017.0 |
| 20260510154321 | 69 | 346 | 4.0 | 4.0 | 0.00 | 0.00 | 0.00 | 63 | 1016.9 |
| 20260510153816 | 70 | 284 | 1.0 | 2.0 | 0.00 | 0.00 | 0.00 | 62 | 1016.3 |
| 20260510153312 | 71 | 293 | 0.0 | 2.0 | 0.00 | 0.00 | 0.00 | 61 | 1015.9 |
| 20260510152809 | 70 | 292 | 2.0 | 3.0 | 0.00 | 0.00 | 0.00 | 62 | 1016.0 |
| 20260510152307 | 69 | 27 | 1.0 | 1.0 | 0.00 | 0.00 | 0.00 | 63 | 1016.1 |
| 20260510151803 | 69 | 349 | 2.0 | 4.0 | 0.00 | 0.00 | 0.00 | 63 | 1016.4 |
| 20260510151301 | 69 | 13 | 2.0 | 6.0 | 0.00 | 0.00 | 0.00 | 63 | 1016.7 |
| 20260510150756 | 71 | 17 | 4.0 | 8.0 | 0.00 | 0.00 | 0.00 | 62 | 1016.6 |
| 20260510150252 | 71 | 272 | 3.0 | 3.0 | 0.00 | 0.00 | 0.00 | 61 | 1016.6 |
| 20260510145748 | 69 | 275 | 3.0 | 4.0 | 0.00 | 0.00 | 0.00 | 62 | 1016.4 |
| 20260510145245 | 69 | 297 | 5.0 | 10.0 | 0.00 | 0.00 | 0.00 | 62 | 1016.7 |
| 20260510144740 | 69 | 7 | 4.0 | 8.0 | 0.00 | 0.00 | 0.00 | 63 | 1016.2 |
| 20260510144238 | 68 | 281 | 2.0 | 10.0 | 0.00 | 0.00 | 0.00 | 64 | 1016.6 |
| 20260510143732 | 69 | 223 | 5.0 | 7.0 | 0.00 | 0.00 | 0.00 | 65 | 1016.7 |
| 20260510143229 | 68 | 306 | 3.0 | 4.0 | 0.00 | 0.00 | 0.00 | 65 | 1016.6 |
| 20260510142725 | 68 | 327 | 3.0 | 4.0 | 0.00 | 0.00 | 0.00 | 65 | 1016.4 |
| 20260510142222 | 67 | 6 | 4.0 | 7.0 | 0.00 | 0.00 | 0.00 | 67 | 1016.6 |
| 20260510141719 | 68 | 14 | 5.0 | 8.0 | 0.00 | 0.00 | 0.00 | 66 | 1016.9 |
| 20260510141218 | 68 | 256 | 3.0 | 8.0 | 0.00 | 0.00 | 0.00 | 66 | 1016.6 |
| 20260510140714 | 68 | 235 | 2.0 | 4.0 | 0.00 | 0.00 | 0.00 | 66 | 1016.4 |
| 20260510140213 | 68 | 238 | 2.0 | 7.0 | 0.00 | 0.00 | 0.00 | 65 | 1016.4 |
| 20260510135708 | 68 | 274 | 4.0 | 9.0 | 0.00 | 0.00 | 0.00 | 63 | 1016.3 |
| 20260510135204 | 67 | 250 | 6.0 | 8.0 | 0.00 | 0.00 | 0.00 | 66 | 1016.6 |
| 20260510134701 | 68 | 320 | 8.0 | 11.0 | 0.00 | 0.00 | 0.00 | 66 | 1016.2 |
| 20260510134159 | 67 | 263 | 8.0 | 9.0 | 0.00 | 0.00 | 0.00 | 67 | 1016.3 |
| 20260510133654 | 67 | 265 | 3.0 | 4.0 | 0.00 | 0.00 | 0.00 | 69 | 1016.4 |
| 20260510133150 | 66 | 15 | 5.0 | 8.0 | 0.00 | 0.00 | 0.00 | 67 | 1016.3 |
| 20260510132646 | 66 | 356 | 4.0 | 6.0 | 0.00 | 0.00 | 0.00 | 68 | 1016.1 |
| 20260510132144 | 66 | 221 | 1.0 | 9.0 | 0.00 | 0.00 | 0.00 | 71 | 1016.4 |
| 20260510131641 | 66 | 214 | 4.0 | 7.0 | 0.00 | 0.00 | 0.00 | 69 | 1016.6 |
| 20260510131139 | 66 | 231 | 2.0 | 7.0 | 0.00 | 0.00 | 0.00 | 70 | 1016.4 |
| 20260510130635 | 66 | 209 | 3.0 | 4.0 | 0.00 | 0.00 | 0.00 | 70 | 1016.6 |
| 20260510130133 | 66 | 213 | 2.0 | 3.0 | 0.00 | 0.00 | 0.00 | 72 | 1016.3 |
| 20260510125629 | 66 | 174 | 2.0 | 2.0 | 0.00 | 0.00 | 0.00 | 71 | 1016.4 |
| 20260510125125 | 65 | 180 | 2.0 | 3.0 | 0.00 | 0.00 | 0.00 | 79 | 1016.3 |
| 20260510124622 | 62 | 266 | 0.0 | 3.0 | 0.00 | 0.00 | 0.00 | 82 | 1016.2 |
| 20260510124119 | 61 | 138 | 0.0 | 0.0 | 0.00 | 0.00 | 0.00 | 89 | 1016.4 |
| 20260510123609 | 59 | 144 | 0.0 | 0.0 | 0.00 | 0.00 | 0.00 | 89 | 1016.4 |
| 20260510123106 | 58 | 126 | 1.0 | 1.0 | 0.00 | 0.00 | 0.00 | 86 | 1016.6 |
| 20260510122601 | 58 | 124 | 0.0 | 1.0 | 0.00 | 0.00 | 0.00 | 88 | 1016.4 |
| 20260510122057 | 54 | 110 | 0.0 | 0.0 | 0.00 | 0.00 | 0.00 | 95 | 1016.4 |
| 20260510121554 | 53 | 110 | 0.0 | 0.0 | 0.00 | 0.00 | 0.00 | 99 | 1016.3 |
| 20260510121052 | 52 | 110 | 0.0 | 0.0 | 0.00 | 0.00 | 0.00 | 99 | 1016.3 |
| 20260510120550 | 53 | 110 | 0.0 | 0.0 | 0.00 | 0.00 | 0.00 | 99 | 1016.1 |
| 20260510120049 | 51 | 110 | 0.0 | 0.0 | 0.00 | 0.00 | 0.00 | 99 | 1015.9 |
| 20260510115547 | 51 | 110 | 0.0 | 0.0 | 0.00 | 0.00 | 0.00 | 99 | 1016.0 |
| 20260510115044 | 51 | 89 | 0.0 | 0.0 | 0.00 | 0.00 | 0.00 | 99 | 1016.1 |
| 20260510114539 | 50 | 86 | 0.0 | 0.0 | 0.00 | 0.00 | 0.00 | 99 | 1015.7 |
| 20260510114036 | 50 | 86 | 0.0 | 0.0 | 0.00 | 0.00 | 0.00 | 99 | 1016.0 |
| 20260510113531 | 48 | 86 | 0.0 | 0.0 | 0.00 | 0.00 | 0.00 | 99 | 1015.8 |
| 20260510113029 | 47 | 86 | 0.0 | 0.0 | 0.00 | 0.00 | 0.00 | 99 | 1015.9 |
| 20260510112525 | 46 | 86 | 0.0 | 0.0 | 0.00 | 0.00 | 0.00 | 99 | 1015.4 |
| 20260510112022 | 45 | 86 | 0.0 | 0.0 | 0.00 | 0.00 | 0.00 | 99 | 1015.3 |
| 20260510111519 | 44 | 85 | 0.0 | 0.0 | 0.00 | 0.00 | 0.00 | 99 | 1015.4 |
| 20260510111014 | 44 | 85 | 0.0 | 0.0 | 0.00 | 0.00 | 0.00 | 99 | 1015.1 |
| 20260510110511 | 44 | 85 | 0.0 | 0.0 | 0.00 | 0.00 | 0.00 | 99 | 1014.9 |
| 20260510110007 | 44 | 85 | 0.0 | 0.0 | 0.00 | 0.00 | 0.00 | 99 | 1015.0 |
| 20260510105502 | 44 | 85 | 0.0 | 0.0 | 0.00 | 0.00 | 0.00 | 99 | 1014.9 |
| 20260510104958 | 44 | 85 | 0.0 | 0.0 | 0.00 | 0.00 | 0.00 | 99 | 1014.9 |
| 20260510104454 | 43 | 85 | 0.0 | 0.0 | 0.00 | 0.00 | 0.00 | 99 | 1015.0 |
| 20260510103951 | 43 | 85 | 0.0 | 0.0 | 0.00 | 0.00 | 0.00 | 99 | 1014.8 |
| 20260510103448 | 43 | 86 | 0.0 | 1.0 | 0.00 | 0.00 | 0.00 | 99 | 1014.7 |
| 20260510102943 | 43 | 85 | 0.0 | 0.0 | 0.00 | 0.00 | 0.00 | 99 | 1014.6 |
| 20260510102439 | 44 | 85 | 0.0 | 0.0 | 0.00 | 0.00 | 0.00 | 99 | 1014.7 |
| 20260510101936 | 43 | 85 | 0.0 | 0.0 | 0.00 | 0.00 | 0.00 | 99 | 1014.8 |
| 20260510101434 | 43 | 102 | 0.0 | 1.0 | 0.00 | 0.00 | 0.00 | 99 | 1015.0 |
| 20260510100932 | 44 | 103 | 0.0 | 0.0 | 0.00 | 0.00 | 0.00 | 99 | 1014.5 |
| 20260510100428 | 44 | 102 | 0.0 | 0.0 | 0.00 | 0.00 | 0.00 | 99 | 1014.4 |
| 20260510095924 | 44 | 103 | 0.0 | 0.0 | 0.00 | 0.00 | 0.00 | 99 | 1014.4 |
| 20260510095420 | 44 | 102 | 0.0 | 1.0 | 0.00 | 0.00 | 0.00 | 99 | 1014.3 |
| 20260510094919 | 44 | 102 | 0.0 | 0.0 | 0.00 | 0.00 | 0.00 | 99 | 1014.1 |
| 20260510094414 | 44 | 102 | 0.0 | 0.0 | 0.00 | 0.00 | 0.00 | 99 | 1014.2 |
| 20260510093911 | 44 | 102 | 0.0 | 0.0 | 0.00 | 0.00 | 0.00 | 99 | 1014.2 |
| 20260510093406 | 44 | 102 | 0.0 | 0.0 | 0.00 | 0.00 | 0.00 | 99 | 1014.1 |
| 20260510092904 | 44 | 102 | 0.0 | 0.0 | 0.00 | 0.00 | 0.00 | 99 | 1014.1 |
| 20260510092401 | 44 | 102 | 0.0 | 0.0 | 0.00 | 0.00 | 0.00 | 99 | 1014.0 |
| 20260510091901 | 44 | 102 | 0.0 | 0.0 | 0.00 | 0.00 | 0.00 | 99 | 1013.9 |
| 20260510091358 | 45 | 102 | 0.0 | 0.0 | 0.00 | 0.00 | 0.00 | 99 | 1014.1 |
| 20260510090855 | 44 | 102 | 0.0 | 0.0 | 0.00 | 0.00 | 0.00 | 99 | 1013.8 |
| 20260510090351 | 45 | 102 | 0.0 | 0.0 | 0.00 | 0.00 | 0.00 | 99 | 1013.7 |
| 20260510085847 | 44 | 102 | 0.0 | 1.0 | 0.00 | 0.00 | 0.00 | 99 | 1013.8 |
| 20260510085342 | 45 | 108 | 2.0 | 2.0 | 0.00 | 0.00 | 0.00 | 99 | 1013.8 |
| 20260510084837 | 44 | 75 | 0.0 | 0.0 | 0.00 | 0.00 | 0.00 | 99 | 1013.6 |
| 20260510084335 | 44 | 69 | 1.0 | 1.0 | 0.00 | 0.00 | 0.00 | 99 | 1013.8 |
| 20260510083831 | 45 | 52 | 0.0 | 0.0 | 0.00 | 0.00 | 0.00 | 99 | 1013.7 |
| 20260510083328 | 45 | 49 | 0.0 | 0.0 | 0.00 | 0.00 | 0.00 | 99 | 1013.6 |
| 20260510082824 | 45 | 49 | 0.0 | 0.0 | 0.00 | 0.00 | 0.00 | 99 | 1013.7 |
| 20260510082321 | 45 | 49 | 0.0 | 0.0 | 0.00 | 0.00 | 0.00 | 99 | 1013.7 |
| 20260510081820 | 45 | 44 | 0.0 | 0.0 | 0.00 | 0.00 | 0.00 | 99 | 1013.6 |
| 20260510081316 | 45 | 44 | 0.0 | 0.0 | 0.00 | 0.00 | 0.00 | 99 | 1013.6 |
| 20260510080812 | 45 | 25 | 0.0 | 0.0 | 0.00 | 0.00 | 0.00 | 99 | 1013.4 |
| 20260510080307 | 45 | 20 | 0.0 | 0.0 | 0.00 | 0.00 | 0.00 | 99 | 1013.5 |
| 20260510075805 | 45 | 20 | 0.0 | 0.0 | 0.00 | 0.00 | 0.00 | 99 | 1013.4 |
| 20260510075305 | 45 | 20 | 0.0 | 0.0 | 0.00 | 0.00 | 0.00 | 99 | 1013.4 |
| 20260510074759 | 45 | 36 | 0.0 | 0.0 | 0.00 | 0.00 | 0.00 | 99 | 1013.4 |
| 20260510074255 | 45 | 109 | 0.0 | 1.0 | 0.00 | 0.00 | 0.00 | 99 | 1013.2 |
| 20260510073751 | 45 | 347 | 2.0 | 4.0 | 0.00 | 0.00 | 0.00 | 99 | 1013.4 |
| 20260510073248 | 44 | 124 | 0.0 | 0.0 | 0.00 | 0.00 | 0.00 | 99 | 1013.3 |
| 20260510072743 | 45 | 354 | 0.0 | 0.0 | 0.00 | 0.00 | 0.00 | 99 | 1013.2 |
| 20260510072240 | 45 | 354 | 0.0 | 0.0 | 0.00 | 0.00 | 0.00 | 99 | 1013.4 |
| 20260510071737 | 45 | 354 | 0.0 | 0.0 | 0.00 | 0.00 | 0.00 | 99 | 1013.4 |
| 20260510071233 | 45 | 353 | 0.0 | 0.0 | 0.00 | 0.00 | 0.00 | 99 | 1013.3 |
| 20260510070732 | 45 | 351 | 0.0 | 0.0 | 0.00 | 0.00 | 0.00 | 99 | 1013.5 |
| 20260510070229 | 45 | 351 | 0.0 | 0.0 | 0.00 | 0.00 | 0.00 | 99 | 1013.3 |
| 20260510065723 | 46 | 351 | 0.0 | 0.0 | 0.00 | 0.00 | 0.00 | 99 | 1013.6 |
| 20260510065220 | 46 | 129 | 0.0 | 0.0 | 0.00 | 0.00 | 0.00 | 99 | 1013.4 |
| 20260510064717 | 45 | 129 | 0.0 | 0.0 | 0.00 | 0.00 | 0.00 | 99 | 1013.3 |
| 20260510064214 | 45 | 129 | 0.0 | 0.0 | 0.00 | 0.00 | 0.00 | 99 | 1013.4 |
| 20260510063711 | 45 | 129 | 0.0 | 0.0 | 0.00 | 0.00 | 0.00 | 99 | 1013.5 |
| 20260510063207 | 47 | 129 | 0.0 | 0.0 | 0.00 | 0.00 | 0.00 | 99 | 1013.6 |
| 20260510062704 | 46 | 128 | 0.0 | 0.0 | 0.00 | 0.00 | 0.00 | 99 | 1013.4 |
| 20260510062200 | 46 | 128 | 0.0 | 0.0 | 0.00 | 0.00 | 0.00 | 99 | 1013.3 |
| 20260510061655 | 46 | 162 | 0.0 | 0.0 | 0.00 | 0.00 | 0.00 | 99 | 1013.6 |
| 20260510061152 | 47 | 162 | 0.0 | 0.0 | 0.00 | 0.00 | 0.00 | 99 | 1013.5 |
| 20260510060649 | 47 | 162 | 0.0 | 0.0 | 0.00 | 0.00 | 0.00 | 99 | 1013.4 |
| 20260510060145 | 46 | 162 | 0.0 | 0.0 | 0.00 | 0.00 | 0.00 | 99 | 1013.5 |
| 20260510055641 | 46 | 162 | 0.0 | 0.0 | 0.00 | 0.00 | 0.00 | 99 | 1013.6 |
| 20260510055140 | 46 | 162 | 0.0 | 0.0 | 0.00 | 0.00 | 0.00 | 99 | 1013.6 |
| 20260510054635 | 46 | 162 | 0.0 | 0.0 | 0.00 | 0.00 | 0.00 | 99 | 1013.7 |
| 20260510054131 | 46 | 162 | 0.0 | 0.0 | 0.00 | 0.00 | 0.00 | 99 | 1013.6 |
| 20260510053630 | 46 | 162 | 0.0 | 0.0 | 0.00 | 0.00 | 0.00 | 99 | 1013.7 |
| 20260510053127 | 46 | 162 | 0.0 | 0.0 | 0.00 | 0.00 | 0.00 | 99 | 1013.6 |
| 20260510052623 | 46 | 162 | 0.0 | 0.0 | 0.00 | 0.00 | 0.00 | 99 | 1013.6 |
| 20260510052119 | 47 | 162 | 0.0 | 0.0 | 0.00 | 0.00 | 0.00 | 99 | 1013.8 |
| 20260510051614 | 46 | 162 | 0.0 | 0.0 | 0.00 | 0.00 | 0.00 | 99 | 1013.8 |
| 20260510051112 | 47 | 164 | 0.0 | 0.0 | 0.00 | 0.00 | 0.00 | 99 | 1013.8 |
| 20260510050609 | 47 | 164 | 0.0 | 0.0 | 0.00 | 0.00 | 0.00 | 99 | 1013.8 |
| 20260510050106 | 47 | 164 | 0.0 | 0.0 | 0.00 | 0.00 | 0.00 | 99 | 1014.0 |
| 20260510045603 | 47 | 164 | 0.0 | 0.0 | 0.00 | 0.00 | 0.00 | 99 | 1013.9 |
| 20260510045059 | 47 | 164 | 0.0 | 0.0 | 0.00 | 0.00 | 0.00 | 99 | 1014.0 |
| 20260510044556 | 47 | 164 | 0.0 | 0.0 | 0.00 | 0.00 | 0.00 | 99 | 1013.9 |
| 20260510044053 | 48 | 164 | 0.0 | 0.0 | 0.00 | 0.00 | 0.00 | 99 | 1013.9 |
| 20260510043549 | 48 | 164 | 0.0 | 0.0 | 0.00 | 0.00 | 0.00 | 99 | 1013.8 |
| 20260510043045 | 48 | 164 | 0.0 | 0.0 | 0.00 | 0.00 | 0.00 | 99 | 1014.2 |
| 20260510042544 | 48 | 164 | 0.0 | 0.0 | 0.00 | 0.00 | 0.00 | 99 | 1014.0 |
| 20260510042039 | 48 | 164 | 0.0 | 0.0 | 0.00 | 0.00 | 0.00 | 99 | 1013.8 |
| 20260510041537 | 48 | 164 | 0.0 | 0.0 | 0.00 | 0.00 | 0.00 | 99 | 1013.8 |
| 20260510041034 | 49 | 164 | 0.0 | 0.0 | 0.00 | 0.00 | 0.00 | 99 | 1013.7 |
| 20260510040531 | 49 | 164 | 0.0 | 0.0 | 0.00 | 0.00 | 0.00 | 99 | 1013.8 |
| 20260510040027 | 49 | 164 | 0.0 | 0.0 | 0.00 | 0.00 | 0.00 | 99 | 1014.0 |
| 20260510035523 | 49 | 164 | 0.0 | 0.0 | 0.00 | 0.00 | 0.00 | 99 | 1014.0 |
| 20260510035023 | 49 | 164 | 0.0 | 0.0 | 0.00 | 0.00 | 0.00 | 99 | 1013.9 |
| 20260510034521 | 49 | 164 | 0.0 | 0.0 | 0.00 | 0.00 | 0.00 | 99 | 1013.8 |
| 20260510034018 | 50 | 164 | 0.0 | 0.0 | 0.00 | 0.00 | 0.00 | 99 | 1013.7 |
| 20260510033513 | 49 | 164 | 0.0 | 0.0 | 0.00 | 0.00 | 0.00 | 99 | 1013.6 |
| 20260510033012 | 50 | 164 | 0.0 | 0.0 | 0.00 | 0.00 | 0.00 | 99 | 1013.7 |
| 20260510032508 | 50 | 164 | 0.0 | 0.0 | 0.00 | 0.00 | 0.00 | 99 | 1013.7 |
| 20260510032008 | 50 | 164 | 0.0 | 0.0 | 0.00 | 0.00 | 0.00 | 99 | 1013.8 |
| 20260510031504 | 50 | 166 | 0.0 | 0.0 | 0.00 | 0.00 | 0.00 | 99 | 1013.7 |
| 20260510031000 | 50 | 169 | 0.0 | 0.0 | 0.00 | 0.00 | 0.00 | 99 | 1013.4 |
| 20260510030455 | 51 | 170 | 0.0 | 0.0 | 0.00 | 0.00 | 0.00 | 99 | 1013.3 |
| 20260510025953 | 51 | 169 | 0.0 | 0.0 | 0.00 | 0.00 | 0.00 | 99 | 1013.4 |
| 20260510025450 | 51 | 170 | 0.0 | 0.0 | 0.00 | 0.00 | 0.00 | 99 | 1013.4 |
| 20260510024947 | 51 | 170 | 0.0 | 0.0 | 0.00 | 0.00 | 0.00 | 99 | 1013.3 |
| 20260510024444 | 52 | 170 | 0.0 | 0.0 | 0.00 | 0.00 | 0.00 | 99 | 1013.2 |
| 20260510023939 | 52 | 170 | 0.0 | 0.0 | 0.00 | 0.00 | 0.00 | 99 | 1013.4 |
| 20260510023436 | 52 | 170 | 0.0 | 0.0 | 0.00 | 0.00 | 0.00 | 98 | 1013.2 |
| 20260510022933 | 52 | 170 | 0.0 | 0.0 | 0.00 | 0.00 | 0.00 | 98 | 1013.2 |
| 20260510022432 | 52 | 170 | 0.0 | 0.0 | 0.00 | 0.00 | 0.00 | 97 | 1013.2 |
| 20260510021931 | 52 | 170 | 0.0 | 0.0 | 0.00 | 0.00 | 0.00 | 97 | 1013.1 |
| 20260510021430 | 53 | 170 | 0.0 | 0.0 | 0.00 | 0.00 | 0.00 | 97 | 1012.9 |
| 20260510020926 | 53 | 170 | 0.0 | 0.0 | 0.00 | 0.00 | 0.00 | 97 | 1013.1 |
| 20260510020427 | 53 | 170 | 0.0 | 0.0 | 0.00 | 0.00 | 0.00 | 96 | 1012.9 |
| 20260510015923 | 53 | 170 | 0.0 | 0.0 | 0.00 | 0.00 | 0.00 | 96 | 1013.0 |
| 20260510015419 | 54 | 170 | 0.0 | 0.0 | 0.00 | 0.00 | 0.00 | 96 | 1012.9 |
| 20260510014914 | 54 | 170 | 0.0 | 0.0 | 0.00 | 0.00 | 0.00 | 95 | 1012.4 |
| 20260510014412 | 54 | 170 | 0.0 | 0.0 | 0.00 | 0.00 | 0.00 | 95 | 1012.4 |
| 20260510013908 | 55 | 170 | 0.0 | 0.0 | 0.00 | 0.00 | 0.00 | 94 | 1012.2 |
| 20260510013403 | 55 | 170 | 0.0 | 0.0 | 0.00 | 0.00 | 0.00 | 92 | 1012.3 |
| 20260510012858 | 56 | 170 | 0.0 | 0.0 | 0.00 | 0.00 | 0.00 | 92 | 1012.3 |
| 20260510012353 | 56 | 170 | 0.0 | 0.0 | 0.00 | 0.00 | 0.00 | 92 | 1012.1 |
| 20260510011848 | 56 | 170 | 1.0 | 2.0 | 0.00 | 0.00 | 0.00 | 91 | 1012.1 |
| 20260510011344 | 56 | 169 | 1.0 | 2.0 | 0.00 | 0.00 | 0.00 | 90 | 1012.1 |
| 20260510010840 | 57 | 183 | 0.0 | 1.0 | 0.00 | 0.00 | 0.00 | 90 | 1012.0 |
| 20260510010338 | 58 | 183 | 0.0 | 0.0 | 0.00 | 0.00 | 0.00 | 88 | 1012.1 |
| 20260510005834 | 58 | 183 | 0.0 | 0.0 | 0.00 | 0.00 | 0.00 | 87 | 1012.0 |
| 20260510005330 | 59 | 183 | 0.0 | 0.0 | 0.00 | 0.00 | 0.00 | 86 | 1012.0 |
| 20260510004828 | 60 | 183 | 0.0 | 0.0 | 0.00 | 0.00 | 0.00 | 85 | 1011.8 |
| 20260510004326 | 61 | 184 | 0.0 | 0.0 | 0.00 | 0.00 | 0.00 | 80 | 1011.8 |
| 20260510003823 | 62 | 184 | 0.0 | 1.0 | 0.00 | 0.00 | 0.00 | 80 | 1011.7 |
| 20260510003320 | 63 | 184 | 0.0 | 2.0 | 0.00 | 0.00 | 0.00 | 74 | 1011.6 |
| 20260510002819 | 65 | 177 | 0.0 | 0.0 | 0.00 | 0.00 | 0.00 | 71 | 1011.4 |
| 20260510002316 | 65 | 206 | 1.0 | 2.0 | 0.00 | 0.00 | 0.00 | 67 | 1011.4 |
| 20260510001812 | 66 | 288 | 1.0 | 3.0 | 0.00 | 0.00 | 0.00 | 65 | 1011.5 |
| 20260510001311 | 67 | 232 | 1.0 | 2.0 | 0.00 | 0.00 | 0.00 | 65 | 1011.4 |
| 20260510000806 | 67 | 287 | 3.0 | 4.0 | 0.00 | 0.00 | 0.00 | 63 | 1011.5 |
| 20260510000305 | 67 | 234 | 4.0 | 6.0 | 0.00 | 0.00 | 0.00 | 62 | 1011.2 |
| 20260509235801 | 68 | 254 | 2.0 | 7.0 | 0.00 | 0.00 | 0.00 | 62 | 1011.2 |
| 20260509235258 | 68 | 311 | 4.0 | 4.0 | 0.00 | 0.00 | 0.00 | 61 | 1011.3 |
| 20260509234753 | 68 | 211 | 2.0 | 6.0 | 0.00 | 0.00 | 0.00 | 60 | 1011.1 |
| 20260509234250 | 69 | 264 | 3.0 | 7.0 | 0.00 | 0.00 | 0.00 | 59 | 1011.4 |
| 20260509233749 | 69 | 290 | 1.0 | 3.0 | 0.00 | 0.00 | 0.00 | 58 | 1011.1 |
| 20260509233246 | 69 | 200 | 3.0 | 4.0 | 0.00 | 0.00 | 0.00 | 60 | 1011.2 |
| 20260509232741 | 69 | 195 | 3.0 | 8.0 | 0.00 | 0.00 | 0.00 | 58 | 1011.2 |
| 20260509232239 | 68 | 313 | 0.0 | 4.0 | 0.00 | 0.00 | 0.00 | 59 | 1011.2 |
| 20260509231735 | 69 | 320 | 1.0 | 2.0 | 0.00 | 0.00 | 0.00 | 58 | 1011.2 |
| 20260509231232 | 69 | 271 | 3.0 | 7.0 | 0.00 | 0.00 | 0.00 | 58 | 1011.2 |
| 20260509230730 | 69 | 298 | 1.0 | 8.0 | 0.00 | 0.00 | 0.00 | 58 | 1011.1 |
| 20260509230227 | 71 | 317 | 4.0 | 7.0 | 0.00 | 0.00 | 0.00 | 56 | 1011.2 |
| 20260509225722 | 71 | 259 | 2.0 | 7.0 | 0.00 | 0.00 | 0.00 | 56 | 1011.1 |
| 20260509225218 | 71 | 322 | 3.0 | 7.0 | 0.00 | 0.00 | 0.00 | 54 | 1011.2 |
| 20260509224713 | 73 | 314 | 2.0 | 3.0 | 0.00 | 0.00 | 0.00 | 53 | 1010.7 |
| 20260509224211 | 71 | 235 | 0.0 | 1.0 | 0.00 | 0.00 | 0.00 | 56 | 1011.0 |
| 20260509223708 | 71 | 289 | 6.0 | 9.0 | 0.00 | 0.00 | 0.00 | 55 | 1011.0 |
| 20260509223205 | 72 | 308 | 5.0 | 11.0 | 0.00 | 0.00 | 0.00 | 53 | 1010.9 |
| 20260509222702 | 71 | 289 | 4.0 | 7.0 | 0.00 | 0.00 | 0.00 | 54 | 1011.0 |
| 20260509222158 | 71 | 304 | 5.0 | 9.0 | 0.00 | 0.00 | 0.00 | 55 | 1011.0 |
| 20260509221653 | 71 | 268 | 4.0 | 4.0 | 0.00 | 0.00 | 0.00 | 54 | 1011.1 |
| 20260509221149 | 70 | 267 | 2.0 | 6.0 | 0.00 | 0.00 | 0.00 | 56 | 1011.3 |
| 20260509220645 | 71 | 320 | 2.0 | 8.0 | 0.00 | 0.00 | 0.00 | 57 | 1011.5 |
| 20260509220141 | 71 | 287 | 6.0 | 14.0 | 0.00 | 0.00 | 0.00 | 55 | 1011.3 |
| 20260509215638 | 71 | 263 | 4.0 | 9.0 | 0.00 | 0.00 | 0.00 | 57 | 1011.3 |
| 20260509215135 | 70 | 293 | 4.0 | 13.0 | 0.00 | 0.00 | 0.00 | 55 | 1011.2 |
| 20260509214632 | 70 | 255 | 6.0 | 9.0 | 0.00 | 0.00 | 0.00 | 57 | 1011.2 |
| 20260509214128 | 70 | 1 | 2.0 | 8.0 | 0.00 | 0.00 | 0.00 | 55 | 1011.2 |
| 20260509213625 | 70 | 325 | 7.0 | 10.0 | 0.00 | 0.00 | 0.00 | 56 | 1011.2 |
| 20260509213121 | 71 | 240 | 6.0 | 10.0 | 0.00 | 0.00 | 0.00 | 54 | 1011.4 |
| 20260509212619 | 71 | 233 | 4.0 | 9.0 | 0.00 | 0.00 | 0.00 | 55 | 1011.2 |
| 20260509212116 | 70 | 343 | 5.0 | 7.0 | 0.00 | 0.00 | 0.00 | 56 | 1011.4 |
| 20260509211611 | 69 | 330 | 6.0 | 7.0 | 0.00 | 0.00 | 0.00 | 57 | 1011.4 |
| 20260509211108 | 70 | 308 | 8.0 | 10.0 | 0.00 | 0.00 | 0.00 | 57 | 1011.0 |
| 20260509210605 | 71 | 264 | 3.0 | 7.0 | 0.00 | 0.00 | 0.00 | 57 | 1011.1 |
| 20260509205602 | 71 | 342 | 3.0 | 6.0 | 0.00 | 0.00 | 0.00 | 59 | 1011.3 |
| 20260509205057 | 71 | 34 | 7.0 | 9.0 | 0.00 | 0.00 | 0.00 | 55 | 1011.4 |
| 20260509204553 | 71 | 323 | 5.0 | 7.0 | 0.00 | 0.00 | 0.00 | 56 | 1011.3 |
| 20260509204050 | 69 | 268 | 6.0 | 8.0 | 0.00 | 0.00 | 0.00 | 60 | 1011.5 |
| 20260509203546 | 69 | 337 | 6.0 | 13.0 | 0.00 | 0.00 | 0.00 | 59 | 1011.1 |
| 20260509203045 | 70 | 283 | 2.0 | 4.0 | 0.00 | 0.00 | 0.00 | 58 | 1011.5 |
| 20260509202544 | 69 | 289 | 4.0 | 6.0 | 0.00 | 0.00 | 0.00 | 59 | 1011.4 |
| 20260509202040 | 68 | 313 | 3.0 | 8.0 | 0.00 | 0.00 | 0.00 | 59 | 1011.3 |
| 20260509201535 | 69 | 338 | 3.0 | 11.0 | 0.00 | 0.00 | 0.00 | 60 | 1011.5 |
| 20260509201034 | 69 | 289 | 6.0 | 9.0 | 0.00 | 0.00 | 0.00 | 59 | 1011.2 |
| 20260509200532 | 69 | 237 | 4.0 | 9.0 | 0.00 | 0.00 | 0.00 | 61 | 1011.2 |
| 20260509200030 | 68 | 312 | 4.0 | 6.0 | 0.00 | 0.00 | 0.00 | 59 | 1011.2 |
| 20260509195525 | 68 | 294 | 5.0 | 10.0 | 0.00 | 0.00 | 0.00 | 59 | 1011.2 |
| 20260509195025 | 70 | 41 | 6.0 | 10.0 | 0.00 | 0.00 | 0.00 | 60 | 1011.6 |
| 20260509194520 | 70 | 301 | 2.0 | 7.0 | 0.00 | 0.00 | 0.00 | 63 | 1011.4 |
| 20260509194018 | 69 | 256 | 5.0 | 7.0 | 0.00 | 0.00 | 0.00 | 60 | 1011.4 |
| 20260509193518 | 69 | 279 | 9.0 | 11.0 | 0.00 | 0.00 | 0.00 | 58 | 1011.5 |
| 20260509193015 | 70 | 346 | 5.0 | 8.0 | 0.00 | 0.00 | 0.00 | 58 | 1011.2 |
| 20260509192512 | 68 | 241 | 11.0 | 14.0 | 0.00 | 0.00 | 0.00 | 59 | 1011.5 |
| 20260509192007 | 69 | 248 | 6.0 | 11.0 | 0.00 | 0.00 | 0.00 | 59 | 1011.5 |
| 20260509191502 | 69 | 229 | 11.0 | 13.0 | 0.00 | 0.00 | 0.00 | 58 | 1011.4 |
| 20260509190957 | 69 | 297 | 5.0 | 9.0 | 0.00 | 0.00 | 0.00 | 65 | 1011.4 |